Location: Härggis
(46.9540°N, 8.4897°E)
Time: 03:19:36
(UTC+00:00)

ADEOS II - Pass Details

Date: 27 May 2022
Orbit: 798 x 801 km, 98.6° (Epoch: 26 June)

Event Time Altitude Azimuth Distance (km) Brightness Sun altitude
Rises 02:50:33 0° 5° (N) 3,318 6.1 -7.3°
Reaches altitude 10° 02:53:12 10° 353° (N) 2,384 5.1 -7.0°
Maximum altitude 02:57:30 26° 298° (WNW) 1,521 3.4 -6.5°
Drops below altitude 10° 03:01:47 10° 243° (WSW) 2,371 3.9 -5.9°
Enters shadow 03:02:38 - 238° (WSW) 2,656 4.1 -5.8°
